Fort Campbell, TN

12:02 PM CST on February 10, 2016 (GMT -0600)
Outlaw

Weather History for KCKV - February, 2012

Change the Weather History Date:

Monday, February 27, 2012

  Actual Average Record
Temperature  
Mean Temperature 54 °F -  
Max Temperature 65 °F - 79 °F (1954)
Min Temperature 43 °F - 9 °F (1963)
Degree Days  
Heating Degree Days 11    
Month to date heating degree days 588  
Since 1 July heating degree days 2694  
Cooling Degree Days 0    
Month to date cooling degree days 0  
Growing Degree Days 4 (Base 50)    
Moisture  
Dew Point 34 °F    
Average Humidity 51    
Maximum Humidity 62    
Minimum Humidity 39    
Precipitation  
Precipitation 0.00 in - 2.69 in (1962)
Month to date precipitation 1.00  
Sea Level Pressure  
Sea Level Pressure 30.36 in    
Wind  
Wind Speed 7 mph (NNW)    
Max Wind Speed 15 mph    
Max Gust Speed 18 mph    
Visibility 10 miles    
Events      
T = Trace of Precipitation, MM = Missing Value Source: NWS Daily Summary

Daily Weather History Graph

Daily Weather History Graph

Search for Another Location

Airport or City:

Trip Planner

Search our weather history database for the weather conditions in past years. The results will help you decide how hot, cold, wet, or windy it might be!

Date:

Astronomy

Feb. 27, 2012 Rise Set
Actual Time 6:23 AM CST 5:41 PM CST
Civil Twilight 5:57 AM CST 6:07 PM CST
Nautical Twilight 5:27 AM CST 6:37 PM CST
Astronomical Twilight 4:57 AM CST 7:07 PM CST
Moon 9:03 AM CST (2/27) 11:23 PM CST (2/27)
Length of Visible Light 12h 10m
Length of Day
11h 18m
Waxing Crescent, 29% of the Moon is Illuminated
Feb 27
Waxing Crescent
Feb 29
First Quarter
Mar 8
Full
Mar 14
Last Quarter
Mar 22
New

Hourly Weather History & Observations

Time (CST) Temp. Windchill Dew Point Humidity Pressure Visibility Wind Dir Wind Speed Gust Speed Precip Events Conditions
1:52 AM 48.9 °F - 28.9 °F 46% 30.28 in 10.0 mi SSW 5.8 mph - N/A   Overcast
2:52 AM 48.9 °F - 30.9 °F 50% 30.28 in 10.0 mi SSW 4.6 mph - N/A   Overcast
3:52 AM 50.0 °F - 30.9 °F 48% 30.30 in 10.0 mi SSW 6.9 mph - N/A   Overcast
4:52 AM 48.0 °F - 32.0 °F 54% 30.31 in 10.0 mi SSW 9.2 mph - N/A   Partly Cloudy
5:52 AM 44.1 °F 42.5 °F 30.9 °F 60% 30.32 in 10.0 mi South 3.5 mph - N/A   Clear
6:52 AM 44.1 °F 40.1 °F 32.0 °F 63% 30.33 in 10.0 mi South 6.9 mph - N/A   Clear
7:52 AM 48.9 °F - 34.0 °F 56% 30.36 in 10.0 mi SSW 8.1 mph - N/A   Clear
8:52 AM 54.0 °F - 37.0 °F 53% 30.37 in 10.0 mi SSW 9.2 mph - N/A   Clear
9:52 AM 57.0 °F - 37.9 °F 49% 30.37 in 10.0 mi WSW 8.1 mph - N/A   Clear
10:52 AM 61.0 °F - 36.0 °F 39% 30.37 in 10.0 mi NW 8.1 mph - N/A   Clear
11:52 AM 62.1 °F - 37.0 °F 39% 30.37 in 10.0 mi Variable 5.8 mph - N/A   Clear
12:52 PM 63.0 °F - 37.0 °F 38% 30.35 in 10.0 mi NNW 5.8 mph - N/A   Clear
1:52 PM 64.0 °F - 39.0 °F 40% 30.34 in 10.0 mi North 9.2 mph - N/A   Clear
2:52 PM 64.0 °F - 42.1 °F 45% 30.34 in 10.0 mi North 10.4 mph - N/A   Clear
3:52 PM 63.0 °F - 39.9 °F 43% 30.34 in 10.0 mi North 11.5 mph - N/A   Clear
4:52 PM 59.0 °F - 39.0 °F 48% 30.35 in 10.0 mi North 10.4 mph - N/A   Clear
5:52 PM 53.1 °F - 37.0 °F 55% 30.38 in 10.0 mi NNE 9.2 mph - N/A   Clear
6:52 PM 51.1 °F - 34.0 °F 52% 30.39 in 10.0 mi NNE 8.1 mph - N/A   Clear
7:52 PM 48.0 °F - 33.1 °F 56% 30.40 in 10.0 mi North 4.6 mph - N/A   Clear
8:52 PM 46.0 °F 41.9 °F 32.0 °F 58% 30.41 in 10.0 mi North 8.1 mph - N/A   Clear
9:52 PM 46.9 °F - 28.9 °F 50% 30.41 in 10.0 mi NE 4.6 mph - N/A   Clear
10:52 PM 45.0 °F 43.5 °F 28.9 °F 53% 30.40 in 10.0 mi NE 3.5 mph - N/A   Clear
11:52 PM 43.0 °F 40.3 °F 28.0 °F 56% 30.40 in 10.0 mi ENE 4.6 mph - N/A   Clear